Retour au catalogue

COSMOS 1285 DEB

LostHEO
NORAD 27798·DEBRIS·🇷🇺 Russia

Lancé Aug 4, 1981 depuis Plesetsk Cosmodrome

Loading…

Prochains Passages (prochaines 24 heures)

TLE

PériméSource: Space-Track

Époque: Feb 18, 2016, 05:40 UTC

1 27798U 81071M   16049.23628946  .00000656  00000-0  00000+0 0  9996
2 27798  69.7363 281.7684 5500691  88.5935  34.8885  1.98167187111220

Suivez COSMOS 1285 DEB en temps réel avec AllMySat

Download on the App Store